Location: *
(45.9500°N, 9.0833°E)
Time: 01:02:13
(UTC+00:00)

SR - Pass Details

Date: 22 June 2021
Orbit: 577 x 878 km, 66.7° (Epoch: 23 July)

Event Time Altitude Azimuth Distance (km) Brightness Sun altitude
Rises 23:29:20 0° 328° (NNW) 3,309 ? -20.6°
Reaches altitude 10° 23:31:53 10° 331° (NNW) 2,329 ? -20.6°
Maximum altitude 23:37:11 68° 54° (NE) 781 ? -20.6°
Enters shadow 23:39:33 30° 130° (SE) 1,237 ? -20.6°
Drops below altitude 10° 23:41:59 10° 138° (SE) 2,113 - -20.5°
Sets 23:44:12 0° 141° (SE) 2,978 - -20.5°
